Vorticity
nan nan nan nan nan nan nan nan nan nan nan nan nan nan nan nan nan nan nan nan nan nan nan nan nan nan nan nan nan nan nan nan nan nan nan nan nan nan nan nan nan nan nan nan nan nan nan nan nan nan nan nan nan nan nan nan nan nan nan nan nan nan nan nan nan nan nan nan nan
nan 9 9 9 9 9 9 9 9 8 8 8 8 8 8 8 9 9 9 9 10 10 10 9 8 7 7 9 11 12 12 12 12 13 13 12 13 15 16 17 18 19 20 21 21 20 20 18 14 11 11 12 13 12 12 14 15 14 14 11 11 15 17 17 17 17 15 12 nan
nan 9 9 9 9 9 9 9 8 8 8 8 8 9 9 10 10 10 10 9 9 9 10 9 8 8 8 10 12 12 11 12 12 13 13 11 11 13 16 16 16 18 20 21 21 20 19 16 12 11 10 11 11 10 9 12 16 15 13 10 11 13 14 14 14 13 12 11 nan
nan 9 9 8 8 9 9 9 8 9 9 10 10 10 10 10 10 10 10 9 9 9 9 9 9 9 9 9 10 11 10 11 11 12 12 10 10 12 14 14 14 14 15 17 16 16 14 12 10 10 10 11 10 9 10 12 13 12 10 8 10 11 11 10 9 9 9 10 nan
nan 8 9 9 9 10 9 9 9 10 10 10 11 11 10 10 11 11 10 9 8 8 7 9 11 10 9 8 9 9 9 9 11 12 10 10 10 11 12 13 13 13 13 13 14 13 11 10 9 9 10 9 10 11 12 13 11 10 9 9 10 10 11 10 9 10 10 11 nan
nan 9 9 9 10 10 10 10 10 10 10 10 10 10 10 10 10 10 10 9 8 7 8 10 11 10 10 9 9 9 9 9 10 10 10 10 10 10 11 11 12 12 12 12 12 11 10 10 10 9 9 9 10 12 13 12 10 10 10 10 10 10 11 11 11 11 13 14 nan
nan 9 9 10 9 9 10 10 11 11 11 11 11 10 10 10 10 10 10 10 8 8 9 10 10 11 11 10 9 9 8 8 8 8 10 11 11 11 11 10 11 12 12 11 11 11 10 10 10 9 9 9 8 9 11 12 11 11 10 10 10 10 11 11 12 13 15 15 nan
nan 8 9 10 10 9 9 9 10 11 11 11 11 11 11 11 10 10 10 9 9 9 9 8 8 10 11 11 10 9 8 8 9 9 10 10 10 10 10 10 10 10 10 11 12 12 12 10 10 10 9 9 9 10 11 13 13 12 10 9 10 11 11 12 13 14 14 12 nan
nan 8 9 10 10 10 10 9 10 11 11 11 10 10 10 10 10 10 9 9 9 9 9 8 8 9 10 11 10 9 9 8 9 9 10 10 9 10 11 10 9 10 9 10 11 12 13 12 11 11 11 11 13 13 13 13 12 10 8 7 10 12 13 13 14 15 14 11 nan
nan 8 9 10 9 9 9 9 9 10 10 10 9 9 10 10 10 10 10 9 9 9 9 9 8 9 9 9 9 9 9 9 9 9 9 10 10 11 12 11 10 10 10 10 9 10 11 12 13 13 14 13 14 13 13 12 10 9 8 8 11 12 12 12 12 12 12 11 nan
nan 8 9 10 10 9 9 8 8 8 9 9 9 8 9 9 10 10 10 10 9 8 9 9 9 10 9 8 8 8 9 10 9 9 9 9 9 10 11 11 11 11 11 11 10 9 9 11 12 13 13 12 10 10 11 11 11 10 11 13 12 10 9 9 9 9 9 10 nan
nan 8 8 9 9 9 10 9 8 7 8 9 9 8 8 9 9 10 10 10 9 8 7 8 10 10 10 9 8 8 9 10 10 9 9 8 9 9 9 10 10 11 11 11 11 11 11 12 12 11 10 10 9 9 10 11 10 10 11 12 10 8 7 8 9 9 10 10 nan
nan 8 8 8 8 9 10 10 9 8 8 9 9 9 9 9 9 10 10 10 9 8 7 8 9 10 10 10 9 9 9 9 10 10 10 9 8 8 8 8 9 10 10 11 12 13 13 12 10 9 8 9 11 12 11 10 9 9 9 8 8 8 8 8 9 10 11 10 nan
nan 9 8 8 9 9 10 10 9 8 9 9 9 9 9 9 9 9 10 10 9 9 8 8 8 9 9 10 10 10 10 10 10 10 10 9 9 8 8 8 9 10 11 12 12 13 12 11 9 8 8 9 11 11 10 10 10 10 9 8 8 8 8 8 9 9 10 9 nan
nan 10 9 9 9 9 9 10 9 9 9 9 9 9 9 9 9 9 9 9 8 8 8 8 8 8 8 9 9 9 9 9 9 9 9 9 9 9 9 9 9 10 11 12 12 12 11 11 9 9 9 8 9 9 9 10 11 11 11 10 9 9 9 9 9 9 9 8 nan
nan 11 11 10 9 9 9 9 9 9 9 9 9 9 9 8 8 8 8 7 7 7 8 8 7 7 7 8 8 8 8 8 8 8 8 8 9 9 10 9 9 10 11 12 11 10 10 10 10 10 10 9 8 9 10 11 11 12 12 11 10 10 10 10 9 9 10 9 nan
nan 11 11 11 10 9 8 8 8 9 9 9 9 9 9 8 8 7 7 6 7 8 8 8 7 7 7 8 8 8 8 8 8 8 8 8 9 9 9 9 10 10 11 11 11 10 10 11 12 11 11 10 9 10 10 11 11 11 11 11 11 11 10 10 10 10 10 11 nan
nan 9 11 11 11 10 10 9 8 8 9 9 9 9 9 9 8 7 6 7 8 9 9 8 7 8 8 8 8 8 9 9 9 9 9 9 9 9 9 10 10 11 11 12 11 10 10 11 11 11 10 10 10 10 10 10 10 11 11 10 10 10 10 10 10 11 11 11 nan
nan 7 8 9 10 10 11 10 9 9 8 8 9 9 9 8 7 7 7 8 9 9 9 8 8 8 8 8 9 9 10 10 11 10 10 10 9 9 9 10 10 11 11 12 12 11 11 11 10 11 11 10 11 11 11 10 10 10 10 9 10 10 10 11 11 12 12 12 nan
nan 5 5 6 8 9 10 11 10 9 8 7 8 9 9 8 7 8 8 9 9 9 9 9 9 9 8 8 9 9 10 11 11 10 9 9 10 10 10 10 9 10 10 10 11 11 11 11 11 11 11 11 11 11 10 9 9 9 8 8 9 10 11 11 12 12 12 12 nan
nan 5 4 5 6 8 9 9 9 9 8 8 8 8 8 8 8 9 9 10 10 10 11 10 10 11 10 10 9 9 10 10 11 10 10 9 10 10 10 10 9 9 9 10 10 11 11 11 11 11 10 10 10 9 9 8 8 8 8 9 10 11 11 11 11 12 12 11 nan
nan 8 7 6 7 7 8 9 9 9 9 8 8 8 8 8 9 10 10 10 11 11 11 11 12 13 12 12 11 10 10 11 11 10 10 10 10 11 11 11 10 9 9 9 10 10 10 10 10 10 9 9 10 10 9 9 8 8 9 10 10 10 10 10 10 10 10 10 nan
nan 10 10 9 9 9 9 9 9 9 8 8 8 9 9 9 10 11 11 11 12 12 11 10 11 12 12 13 12 12 11 10 10 10 10 10 10 11 11 11 10 9 8 8 8 9 8 8 8 8 8 9 9 9 9 8 8 8 8 9 8 8 8 9 9 9 9 9 nan
nan 9 9 11 11 10 9 8 8 8 9 9 10 11 11 11 11 12 12 12 12 12 11 11 11 11 11 12 13 12 11 10 9 9 9 9 9 8 8 9 9 8 8 9 11 11 9 8 7 7 7 8 8 8 8 8 8 8 8 7 7 7 7 8 9 9 9 8 nan
nan 10 9 10 11 10 9 8 8 9 10 11 12 12 12 12 11 11 11 12 12 12 11 11 10 10 10 11 12 11 11 10 10 9 9 8 8 7 7 7 8 8 9 12 14 13 11 10 9 9 8 8 8 8 8 9 9 8 8 7 6 6 7 7 7 7 8 7 nan
nan 10 10 10 10 10 10 9 10 10 11 11 12 12 11 11 11 11 11 11 11 11 10 9 9 9 9 10 11 10 10 10 10 9 9 9 8 8 7 7 8 9 12 16 15 12 11 11 11 10 10 9 9 8 8 9 9 9 8 7 7 7 7 7 7 6 6 6 nan
nan 11 10 10 10 10 10 10 10 11 11 11 11 10 10 10 10 10 10 10 10 9 9 8 8 8 8 8 9 9 8 9 10 9 9 9 9 8 8 8 10 12 17 18 15 12 11 10 10 9 10 10 10 10 10 10 10 8 8 7 7 8 8 7 6 6 5 6 nan
nan 10 10 10 10 10 10 10 10 10 10 10 10 9 9 9 10 9 9 9 9 8 7 7 7 7 7 9 9 8 8 8 8 9 9 9 9 9 9 10 13 16 20 19 14 12 11 10 9 9 8 9 9 9 10 10 8 6 6 7 8 8 8 6 5 5 5 5 nan
nan 10 10 10 9 9 10 10 10 10 10 10 10 9 9 9 9 9 9 9 8 7 7 7 8 9 10 11 11 10 9 8 8 9 10 11 10 10 11 13 15 18 20 16 11 11 11 11 10 9 8 7 7 8 9 8 7 7 7 8 10 9 8 7 7 8 7 6 nan
nan 10 10 10 9 9 9 10 10 10 10 10 11 10 9 10 10 10 10 9 8 8 8 10 11 12 12 12 11 11 11 11 11 12 12 12 11 12 12 13 15 17 18 14 10 11 11 11 10 9 8 6 7 8 9 10 9 10 10 10 11 11 10 9 10 10 9 8 nan
nan 10 10 9 9 9 10 11 11 10 10 10 11 10 10 10 10 10 10 9 9 10 11 12 13 12 11 11 11 12 12 12 13 13 13 12 12 12 12 12 14 15 16 13 10 10 10 10 9 8 7 7 8 10 12 13 12 11 12 13 13 11 10 9 10 11 12 10 nan
nan 10 10 9 9 10 11 12 11 10 10 10 10 10 10 10 10 10 10 10 11 12 12 12 11 10 10 10 11 11 12 12 13 13 13 12 12 11 11 11 12 14 16 13 10 10 10 9 8 8 8 8 9 12 13 13 11 11 12 13 13 12 11 11 11 11 11 10 nan
nan 10 10 9 10 10 11 11 10 10 10 10 10 10 10 10 9 10 10 10 11 12 12 11 10 9 9 9 10 10 10 11 12 13 13 12 11 10 9 9 10 14 16 13 10 10 10 9 9 8 8 8 8 10 11 11 10 10 10 9 10 10 11 12 11 10 9 10 nan
nan 11 10 10 11 11 10 10 9 9 10 10 10 10 9 9 9 9 9 9 11 11 11 11 11 10 10 9 9 9 10 11 12 12 12 10 9 9 8 8 12 17 16 12 10 10 10 9 9 7 6 4 6 9 10 10 10 11 10 9 8 8 8 9 9 9 9 10 nan
nan 11 10 10 11 11 10 9 9 9 9 9 9 9 9 9 9 8 8 9 10 11 11 11 11 11 10 10 9 9 9 10 11 12 13 13 11 10 9 11 15 17 14 10 9 10 10 9 7 5 2 1 5 9 9 8 9 10 10 8 8 8 8 8 7 7 7 9 nan
nan 11 10 11 10 10 10 9 9 9 9 9 9 9 8 9 9 8 9 9 9 9 9 9 9 9 9 7 7 7 8 9 10 11 13 16 16 13 11 11 14 14 11 9 9 9 9 7 5 3 1 2 7 9 8 7 8 9 8 7 7 7 7 7 7 7 8 7 nan
nan 11 11 11 10 10 10 9 9 8 8 9 9 9 8 8 8 8 8 8 8 8 7 8 8 8 7 6 6 6 8 9 11 11 11 13 15 15 13 12 11 11 10 9 9 8 7 6 4 2 1 4 9 9 8 8 9 9 8 7 6 6 6 6 7 8 8 8 nan
nan 11 11 11 11 11 10 9 9 9 9 9 9 9 9 8 8 8 8 7 8 7 7 7 7 7 6 6 6 7 8 10 11 11 9 10 13 14 14 12 10 10 10 10 9 8 7 5 3 3 3 7 9 8 8 9 10 9 8 7 7 7 6 7 7 7 7 7 nan
nan 11 12 12 12 12 11 10 10 10 10 11 10 9 8 7 8 9 8 9 10 9 9 8 7 7 7 7 7 6 7 9 10 10 9 10 13 13 12 11 10 11 12 12 9 8 7 5 4 4 5 7 8 8 8 10 11 10 9 8 8 8 7 7 8 8 7 5 nan
nan 11 12 13 12 12 11 10 10 10 11 11 11 10 9 8 8 9 9 10 11 11 10 10 9 8 8 7 7 7 7 8 8 8 9 11 12 12 12 11 10 11 12 11 9 8 7 5 4 4 4 5 7 8 9 10 10 10 9 9 9 8 8 8 8 8 8 6 nan
nan nan nan nan nan nan nan nan nan nan nan nan nan nan nan nan nan nan nan nan nan nan nan nan nan nan nan nan nan nan nan nan nan nan nan nan nan nan nan nan nan nan nan nan nan nan nan nan nan nan nan nan nan nan nan nan nan nan nan nan nan nan nan nan nan nan nan nan nan
CAPE
nan nan nan nan nan nan nan nan nan nan nan nan nan nan nan nan nan nan nan nan 0 1 1 1 1 2 2 2 2 2 2 2 3 2 2 3 2 1 1 2 3 5 5 6 35 35 115 164 50 50 1 1 0 1 1 4 4 8 8 6 10 30 30 46 20 20 7 5 5
nan nan nan nan nan nan nan nan nan nan nan nan nan nan nan nan nan 0 0 2 2 2 2 2 2 2 2 3 3 3 3 3 3 3 3 2 1 1 1 2 3 4 4 6 7 7 14 6 2 2 1 0 1 1 1 1 5 4 4 2 1 2 2 5 5 5 3 2 2
nan nan nan nan nan nan nan nan nan nan nan nan nan nan nan 0 1 1 1 3 3 3 3 3 1 2 2 2 2 2 3 2 3 3 3 2 1 2 2 1 2 1 1 0 0 0 1 1 1 1 1 0 1 0 0 1 2 1 1 1 0 0 0 0 0 0 0 1 0
nan nan nan nan nan nan nan nan nan nan nan nan nan nan nan 1 2 3 3 3 1 1 1 2 0 0 0 1 2 2 2 2 2 3 3 2 1 2 2 1 2 1 1 1 1 1 1 1 0 0 1 1 1 1 1 1 1 0 0 0 0 0 0 1 0 0 0 0 0
nan nan nan nan nan nan nan nan nan nan nan nan nan 0 0 0 1 1 1 1 0 0 0 0 nan 0 0 1 1 1 0 1 1 2 2 2 1 2 2 2 2 2 2 2 1 1 1 1 0 0 1 1 1 1 1 1 1 1 1 1 1 1 1 1 1 1 1 0 1
nan nan nan nan nan nan nan nan nan nan nan nan nan nan nan 0 nan nan nan 0 nan nan nan nan nan nan nan nan 0 0 0 0 1 0 0 0 1 1 1 1 1 2 2 2 1 1 1 1 1 1 1 1 1 2 2 2 1 1 1 1 1 1 1 1 1 1 1 1 1
nan nan nan nan nan nan nan nan nan nan nan nan nan nan nan nan nan nan nan nan nan nan nan nan nan nan nan nan nan nan nan nan 0 nan nan nan 0 nan nan 0 0 2 2 2 2 2 1 1 1 1 2 2 1 1 1 2 2 1 1 1 1 1 1 2 2 2 2 1 2
nan nan nan nan nan nan nan nan nan nan nan nan nan nan nan nan nan nan nan nan nan nan nan nan nan nan nan nan nan nan nan nan nan nan nan nan nan nan nan nan nan 0 0 1 2 2 2 2 2 2 2 1 2 1 1 0 0 0 0 1 2 2 2 1 2 2 2 0 0
nan nan nan nan nan nan nan nan nan nan nan nan nan nan nan nan nan nan nan nan nan nan nan nan nan nan nan nan nan nan nan nan nan nan nan nan nan nan nan nan nan nan nan 0 0 0 1 1 1 1 1 1 1 nan nan nan nan nan nan 1 2 2 2 2 1 1 1 nan nan
nan nan nan nan nan nan nan nan nan nan nan nan nan nan nan nan nan nan nan nan nan nan nan nan nan nan nan nan nan nan nan nan nan nan nan nan nan nan nan nan nan nan nan nan nan nan nan nan 0 0 0 1 0 nan nan nan nan 1 1 1 1 1 1 1 1 1 1 nan nan
nan nan nan nan nan nan nan nan nan nan nan nan nan nan nan nan nan nan nan nan nan nan nan nan nan nan nan nan nan nan nan nan nan nan nan nan nan nan nan nan nan nan nan nan nan nan nan nan nan nan nan nan nan nan nan nan 0 1 1 0 1 1 1 1 0 0 0 nan nan
nan nan nan nan nan nan nan nan nan nan nan nan nan nan nan nan nan nan nan nan nan nan nan nan nan nan nan nan nan nan nan nan nan nan nan nan nan nan nan nan nan nan nan nan nan nan nan nan nan nan nan nan nan nan nan nan nan nan nan nan nan nan nan nan nan nan nan nan 0
nan nan nan nan nan nan nan nan nan nan nan nan nan nan nan nan nan nan nan nan nan nan nan nan nan nan nan nan nan nan nan nan nan nan nan nan nan nan nan nan nan nan nan nan nan nan nan nan nan nan nan nan nan nan nan nan nan nan nan nan nan nan nan nan nan nan nan nan nan
nan nan nan nan nan nan nan nan nan nan nan nan nan nan nan nan nan nan nan nan nan nan nan nan nan nan nan nan nan nan nan nan nan nan nan nan nan nan nan nan nan nan nan nan nan nan nan nan nan nan nan nan nan nan nan nan nan nan nan nan nan nan nan nan nan nan nan 0 1
nan nan nan nan nan nan nan nan nan nan nan nan nan nan nan nan nan nan nan nan nan nan nan nan nan nan nan nan nan nan nan nan nan nan nan nan nan nan nan nan nan nan nan nan nan nan nan nan nan nan nan nan nan nan nan nan nan nan nan nan nan nan nan nan 0 0 2 3 3
nan nan nan nan nan nan nan nan nan nan nan nan nan nan nan nan nan nan nan nan nan nan nan nan nan nan nan nan nan nan nan nan nan nan nan nan nan nan nan nan nan nan nan nan nan nan nan nan nan nan nan nan nan nan nan 1 1 1 1 1 2 2 2 4 5 5 5 5 4
nan nan nan nan nan nan nan nan 0 0 0 0 nan nan nan nan nan nan nan nan nan nan nan nan nan nan nan nan nan nan nan nan nan nan nan nan nan nan nan nan nan nan nan nan nan nan nan nan nan nan 2 2 2 2 2 3 4 5 5 5 5 5 5 5 5 5 5 4 4
nan nan nan nan nan nan nan nan nan nan nan nan 0 0 0 nan nan nan nan nan nan nan nan nan nan nan nan nan nan nan nan nan nan nan nan nan nan nan nan nan nan nan nan nan nan nan 1 2 3 3 3 3 4 5 5 6 7 7 7 6 7 7 7 5 5 5 6 5 6
nan nan nan nan nan nan nan nan nan nan nan nan nan 0 0 0 nan nan nan nan nan nan nan nan nan nan nan nan nan nan nan nan nan nan nan nan nan nan nan nan nan nan nan 0 2 2 3 2 2 2 3 2 4 5 5 6 6 7 7 7 6 5 5 5 5 5 6 6 7
0 0 0 0 nan nan nan nan nan nan nan nan 0 1 1 2 1 0 0 nan nan 0 0 0 nan nan nan 0 0 0 nan nan nan nan nan nan nan nan nan nan nan nan nan 2 3 3 4 3 3 3 4 2 2 4 4 5 5 5 5 4 4 5 5 5 6 6 6 7 8
1 0 0 2 nan nan nan nan nan nan 0 nan 1 2 2 2 1 1 1 0 nan nan nan 1 0 0 0 0 0 0 nan nan nan nan nan nan nan nan nan nan nan 0 0 nan nan nan 0 1 1 1 1 2 2 4 4 4 4 5 5 4 4 5 5 4 5 5 7 9 10
1 1 1 3 1 1 0 1 0 0 0 0 2 2 2 2 1 2 2 0 nan 0 0 0 nan nan nan nan nan nan nan nan nan nan nan nan nan 0 0 0 3 4 4 4 3 3 0 nan nan nan nan 1 4 5 5 4 3 4 4 4 5 7 7 7 7 7 9 11 13
2 3 3 4 5 5 1 1 3 3 2 2 3 3 3 3 3 2 2 0 0 0 0 0 0 nan nan 0 0 0 nan nan 0 0 0 1 2 3 3 4 6 6 6 6 5 5 5 1 0 0 1 3 6 7 7 5 5 5 5 5 5 6 6 9 9 9 9 9 12
3 3 3 4 8 8 7 4 6 6 6 6 4 3 3 2 1 0 0 0 0 0 0 nan nan 0 0 1 0 0 nan 0 3 4 4 4 5 6 6 6 6 4 4 1 3 3 5 4 4 4 5 7 7 1 1 1 2 4 4 4 5 5 5 8 11 11 14 12 4
5 5 5 4 7 7 9 10 7 7 9 8 3 1 1 0 0 0 0 0 0 0 0 0 0 nan nan nan nan nan 1 2 3 4 4 5 5 6 6 3 0 0 0 1 3 3 3 4 3 3 2 2 0 nan nan 0 0 nan nan 0 2 2 2 3 4 4 5 11 9
6 7 7 7 8 8 9 9 9 9 6 3 2 2 2 2 1 1 1 1 1 1 1 4 3 nan nan nan 1 1 3 3 5 5 5 6 6 5 5 2 0 2 2 3 5 5 5 5 4 4 1 nan nan nan nan nan nan nan nan 0 0 nan nan 0 0 0 0 nan 0
8 8 8 7 7 7 6 5 4 4 4 3 6 6 6 5 3 5 5 4 5 5 5 6 5 1 1 2 6 6 4 4 5 6 6 6 6 3 3 4 1 5 5 6 7 7 8 8 5 5 3 2 2 0 0 0 0 1 1 0 nan nan nan nan nan nan nan nan nan
9 10 10 11 11 11 9 8 9 9 12 11 13 13 13 12 10 8 8 8 8 8 8 10 8 6 6 6 7 7 7 5 5 7 7 9 3 3 3 3 3 4 4 6 8 8 9 9 7 7 6 5 5 4 4 1 0 3 3 nan 0 2 2 0 nan nan nan nan nan
10 15 15 19 17 17 18 21 19 19 16 19 23 20 20 20 15 13 13 13 12 12 12 13 14 17 17 15 15 15 12 10 7 8 8 12 4 5 5 7 7 7 7 10 10 10 10 8 8 8 8 7 5 3 3 0 0 0 0 1 2 2 2 0 nan nan nan nan nan
15 20 20 25 24 24 23 24 21 21 17 21 24 21 21 19 17 15 15 15 14 13 13 14 19 19 19 19 17 17 15 16 12 10 10 14 7 7 7 11 11 10 10 12 11 11 11 10 8 8 8 7 6 3 3 0 1 1 1 1 1 nan nan nan nan nan nan nan nan
19 23 23 27 25 25 25 23 18 18 13 17 20 20 20 19 16 15 15 15 13 13 13 16 17 16 16 17 17 17 18 19 16 8 8 13 10 14 14 15 15 13 13 13 12 12 11 10 8 8 8 5 2 3 3 0 1 0 0 nan nan nan nan nan nan nan nan nan nan
22 25 25 22 21 21 20 18 13 13 10 12 17 17 17 17 15 14 14 12 13 13 13 14 15 15 15 17 18 18 20 19 17 16 16 16 17 17 17 18 17 15 15 14 13 13 12 10 8 8 4 1 nan nan nan nan nan nan nan nan nan nan nan nan nan nan nan nan nan
24 22 22 18 20 20 18 14 7 7 7 8 13 14 14 15 14 11 11 12 12 14 14 16 13 16 16 17 19 19 20 17 17 18 18 19 19 19 19 19 17 14 14 16 14 14 12 8 5 5 1 nan nan nan nan nan nan nan nan nan nan nan nan nan nan nan nan nan nan
22 22 22 20 20 20 16 10 6 6 5 7 9 12 12 10 9 9 9 10 13 16 16 15 16 18 18 19 21 21 16 15 20 19 19 20 19 19 19 20 21 16 16 16 14 14 10 7 2 2 nan nan nan nan nan nan nan nan nan nan nan nan nan nan nan nan nan nan nan
20 20 20 20 17 17 13 8 8 8 5 5 6 7 7 6 7 6 6 7 9 12 12 11 15 15 15 16 16 16 15 14 16 19 19 22 22 17 17 18 19 16 16 14 12 12 8 3 nan nan nan nan nan nan nan nan nan nan nan nan nan nan nan nan nan nan nan nan nan
20 20 20 19 16 16 12 8 7 7 6 4 4 4 4 5 5 5 5 4 4 5 5 5 5 5 5 5 2 2 2 1 4 10 10 17 20 17 17 15 13 13 13 12 10 10 6 0 nan nan nan nan nan nan nan nan nan nan nan nan nan nan nan nan nan nan nan nan nan
20 19 19 19 15 15 12 8 7 7 6 4 4 5 5 5 5 4 4 3 4 4 4 4 4 3 3 1 0 0 nan nan 0 2 2 5 10 12 12 12 9 10 10 10 7 7 2 nan nan nan nan nan nan nan nan nan nan nan nan nan nan nan nan nan nan nan nan nan nan
20 18 18 17 16 16 13 9 7 7 6 3 4 4 4 4 4 5 5 4 4 4 4 4 3 1 1 nan nan nan nan nan nan nan nan nan 0 6 6 8 7 7 7 6 4 4 0 nan nan nan nan nan nan nan nan nan nan nan nan nan nan nan nan nan nan nan nan nan nan
16 17 17 16 10 10 8 8 5 5 2 2 4 5 5 5 5 5 5 4 5 4 4 3 0 nan nan nan nan nan nan nan nan nan nan nan nan 3 3 5 5 3 3 1 0 0 nan nan nan nan nan nan nan nan nan nan nan nan nan nan nan nan nan nan nan nan nan nan nan
15 13 13 9 6 6 3 3 2 2 1 2 3 3 3 5 5 5 5 4 4 5 5 3 0 nan nan nan nan nan nan nan nan nan nan nan nan 0 0 2 1 nan nan nan nan nan nan nan nan nan nan nan nan nan nan nan nan nan nan nan nan nan nan nan nan nan nan nan nan
13 7 7 3 3 3 2 1 0 0 1 1 1 3 3 5 4 3 3 3 4 2 2 1 0 nan nan nan nan nan nan nan nan nan nan nan nan nan nan nan nan nan nan nan nan nan nan nan nan nan nan nan nan nan nan nan nan nan nan nan nan nan nan nan nan nan nan nan nan